COSMOS 1275 DEB, 14364

Orbit data source: Space-Track

COSMOS 1275 DEB, 14364 is space debris in LEO originally from a launch on Thu, 04 Jun 1981 UTC launched from the Plesetsk Missile And Space Complex (PKMTR). Debris objects in space refer to the collection of defunct objects orbiting the Earth. Examples of debris include non-operational satellites, rocket bodies, and fragments generated from explosions, collisions, or faulty payload assembly.

Loading next visibility...
Identifier
14364, 1981-053HX
Orbit
LEO
Country
Flag of CISCIS
Related business
Manufacturer
Unknown
Mission
Spacecraft
Bus & Motor
Unknown
Mass
Unknown
Launch date (UTC)
1981-06-04 (45 years ago)
Launch vehicle
Unknown
Launch site
Plesetsk Missile And Space Complex (PKMTR)
Object type
Payload
Rocket body
Debris
Shape & HBR
Unknown shape, 0.1 m
Radar Cross Section
Small (<0.1 m²)

Expand to show TLE details & history
Last TLE update: 9 hours ago

TLE from 9 hours ago
0 COSMOS 1275 DEB
1 14364U 81053HX  25355.19987944  .00002549  00000-0  10981-2 0  9997
2 14364  82.7771  61.1851 0026529  49.5523 310.7967 14.24071319202263
Epoch: 2025-12-21T04:47Z
TLE epoch observation values (Epoch: 2025-12-21T04:47:49.583Z)
Latitude
-0.00006°
Longitude
-100.78725°
Altitude
802.145 km
Speed
7.459 km/s
True Right ascension
04h 04m 44s
True Declination
0° 00' 00"
Sunlit
Object was in full shadow at epoch
Visualization orbit readout
Latitude
Unknown
Longitude
Unknown
Altitude
Unknown
Speed
Unknown
Apparent Right ascension
Unknown
Apparent Declination
Unknown
Sunlit
N/A
Visualization observer readout
Local Sidereal Time
12:54:47
Azimuth
Unknown
Elevation
Unknown
Doppler factor
Unknown
Orbital elements
Apogee altitude
827.77 km
Perigee altitude
789.638 km
Semi-major axis
7,186.841 km
Eccentricity
0.00265
Inclination
82.7771°
RAAN
61.1851°
Arg. of periapsis
49.5523°
True anomaly
310.56606°
Mean anomaly
310.7967°
Eccentric anomaly
310.68143°
Mean motion
3.56235 °/min
Orbital period
101.06 mins
BSTAR
0.0010981
Loading maneuver chart data...
Computing Atmospheric mass density...
Loading historical data...
Loading historical data...
Loading historical data...
Loading historical data...
Loading historical data...
Loading historical data...
Loading historical data...

Documentation

Showing up to 5 results
|